This is the latest recevied weather packets stored in our database for station/object KG7QQL. If no packets are shown the sender has not sent any weather packets the latest 10 day(s).
| Time | Temp. | Humidity | Pressure | Rain* | Wind** | Luminosity | Snow |
|---|---|---|---|---|---|---|---|
| 1777840063 | 22.22° C | 48% | - | 0 mm | - | - | - |
| 1777839761 | 22.22° C | 51% | - | 0 mm | - | - | - |
| 1777839458 | 22.22° C | 48% | - | 0 mm | - | - | - |
| 1777839156 | 22.22° C | 48% | - | 0 mm | - | - | - |
| 1777838852 | 22.22° C | 48% | - | 0 mm | - | - | - |
| 1777838548 | 22.22° C | 49% | - | 0 mm | - | - | - |
| 1777838245 | 22.22° C | 50% | - | 0 mm | - | - | - |
| 1777837942 | 22.78° C | 49% | - | 0 mm | - | - | - |
| 1777837640 | 22.22° C | 51% | - | 0 mm | - | - | - |
| 1777837335 | 22.22° C | 53% | - | 0 mm | - | - | - |
| 1777837032 | 21.67° C | 55% | - | 0 mm | - | - | - |
| 1777836728 | 22.78° C | 54% | - | 0 mm | - | - | - |
| 1777836424 | 22.22° C | 54% | - | 0 mm | - | - | - |
| 1777836119 | 22.22° C | 53% | - | 0 mm | - | - | - |
| 1777835816 | 22.22° C | 54% | - | 0 mm | - | - | - |
| 1777835513 | 22.22° C | 54% | - | 0 mm | - | - | - |
| 1777835210 | 21.67° C | 55% | - | 0 mm | - | - | - |
| 1777834907 | 21.67° C | 56% | - | 0 mm | - | - | - |
| 1777834603 | 21.67° C | 58% | - | 0 mm | - | - | - |
| 1777834299 | 21.11° C | 59% | - | 0 mm | - | - | - |
| 1777833994 | 21.11° C | 60% | - | 0 mm | - | - | - |
| 1777833690 | 20.56° C | 61% | - | 0 mm | - | - | - |
| 1777833387 | 20° C | 62% | - | 0 mm | - | - | - |
| 1777833085 | 20° C | 64% | - | 0 mm | - | - | - |
| 1777832783 | 19.44° C | 65% | - | 0 mm | - | - | - |
* Rain latest hour (hover to see other rain measurements)
** Current wind speed in m/s (hover to see current wind gust speed)